Change the Weather History Date:

Friday, February 15, 2013

  Actual Average Record
Temperature  
Mean Temperature 44 °F -  
Max Temperature 50 °F 49 °F 63 °F (1992)
Min Temperature 39 °F 35 °F 13 °F (1956)
Degree Days  
Heating Degree Days 20    
Moisture  
Dew Point 41 °F    
Average Humidity 93    
Maximum Humidity 100    
Minimum Humidity 68    
Precipitation  
Precipitation 0.01 in - - ()
Sea Level Pressure  
Sea Level Pressure 30.45 in    
Wind  
Wind Speed 2 mph (North)    
Max Wind Speed 6 mph    
Max Gust Speed -    
Visibility 4 miles    
Events Fog    
Averages and records for this station are not official NWS values.
T = Trace of Precipitation, MM = Missing Value Source: NWS Daily Summary

Daily Weather History Graph

Daily Weather History Graph

Search for Another Location

Airport or City:

Trip Planner

Search our weather history database for the weather conditions in past years. The results will help you decide how hot, cold, wet, or windy it might be!

Date:

Astronomy

Feb. 15, 2013 Rise Set
Actual Time 7:14 AM PST 5:32 PM PST
Civil Twilight 6:42 AM PST 6:04 PM PST
Nautical Twilight 6:06 AM PST 6:40 PM PST
Astronomical Twilight 5:30 AM PST 7:16 PM PST
Moon 9:24 AM PST (2/15) No Moon Set
Length of Visible Light 11h 21m
Length of Day
10h 17m
Waxing Crescent, 31% of the Moon is Illuminated
Feb 15
Waxing Crescent
Feb 17
First Quarter
Feb 25
Full
Mar 4
Last Quarter
Mar 11
New

Hourly Weather History & Observations

Time (PST) Temp. Windchill Dew Point Humidity Pressure Visibility Wind Dir Wind Speed Gust Speed Precip Events Conditions
12:53 AM 44.1 °F - 42.1 °F 93% 30.56 in 8.0 mi Calm Calm - N/A   Overcast
1:00 AM 42.8 °F 41.1 °F 42.8 °F 100% 30.54 in 1.8 mi NNE 3.5 mph - N/A   Overcast
1:08 AM 42.8 °F 41.1 °F 42.8 °F 100% 30.54 in 0.2 mi NNE 3.5 mph - N/A Fog Fog
1:19 AM 42.8 °F 41.1 °F 42.8 °F 100% 30.54 in 0.8 mi NNE 3.5 mph - N/A   Overcast
1:23 AM 42.8 °F - 42.8 °F 100% 30.54 in 2.0 mi Calm Calm - N/A   Overcast
1:30 AM 42.8 °F - 42.8 °F 100% 30.54 in 3.0 mi Calm Calm - N/A   Overcast
1:34 AM 42.8 °F 41.1 °F 42.8 °F 100% 30.54 in 1.8 mi NNE 3.5 mph - N/A   Overcast
1:44 AM 42.8 °F - 42.8 °F 100% 30.54 in 0.5 mi Calm Calm - N/A Fog Fog
1:51 AM 42.8 °F - 42.8 °F 100% 30.53 in 0.2 mi Calm Calm - N/A Fog Fog
1:53 AM 43.0 °F - 42.1 °F 97% 30.55 in 0.2 mi Calm Calm - N/A Fog Fog
1:58 AM 42.8 °F - 42.8 °F 100% 30.53 in 0.5 mi Calm Calm - N/A Fog Fog
2:11 AM 42.8 °F - 42.8 °F 100% 30.53 in 1.0 mi Calm Calm - N/A   Overcast
2:18 AM 42.8 °F - 41.0 °F 93% 30.53 in 0.5 mi Calm Calm - N/A Fog Fog
2:25 AM 42.8 °F - 41.0 °F 93% 30.53 in 0.2 mi Calm Calm - N/A Fog Fog
2:39 AM 42.8 °F - 42.8 °F 100% 30.53 in 0.5 mi Calm Calm - N/A Fog Fog
2:53 AM 43.0 °F 41.3 °F 42.1 °F 97% 30.53 in 0.5 mi North 3.5 mph - N/A Fog Fog
3:00 AM 42.8 °F 41.1 °F 42.8 °F 100% 30.52 in 1.0 mi North 3.5 mph - N/A   Mist
3:18 AM 42.8 °F 41.1 °F 42.8 °F 100% 30.51 in 0.8 mi NNE 3.5 mph - N/A   Mist
3:31 AM 42.8 °F - 42.8 °F 100% 30.51 in 0.2 mi Calm Calm - N/A Fog Fog
3:34 AM 42.8 °F - 42.8 °F 100% 30.51 in 0.5 mi Calm Calm - N/A Fog Fog
3:42 AM 42.8 °F 41.1 °F 42.8 °F 100% 30.51 in 0.2 mi NNE 3.5 mph - N/A Fog Fog
3:53 AM 43.0 °F 40.3 °F 42.1 °F 97% 30.51 in 0.2 mi NNE 4.6 mph - N/A Fog Fog
4:04 AM 42.8 °F 41.1 °F 42.8 °F 100% 30.50 in 0.2 mi North 3.5 mph - N/A Fog Fog
4:09 AM 42.8 °F 41.1 °F 42.8 °F 100% 30.50 in 0.5 mi North 3.5 mph - N/A Fog Fog
4:18 AM 42.8 °F 41.1 °F 41.0 °F 93% 30.50 in 2.0 mi North 3.5 mph - N/A   Overcast
4:26 AM 42.8 °F 40.1 °F 42.8 °F 100% 30.50 in 5.0 mi NNE 4.6 mph - N/A   Overcast
4:53 AM 42.1 °F - 41.0 °F 96% 30.51 in 2.0 mi Calm Calm - N/A   Overcast
5:00 AM 42.8 °F - 41.0 °F 93% 30.49 in 1.2 mi Calm Calm - N/A   Overcast
5:19 AM 42.8 °F 41.1 °F 41.0 °F 93% 30.49 in 0.5 mi North 3.5 mph - N/A Fog Fog
5:28 AM 42.8 °F - 41.0 °F 93% 30.48 in 0.2 mi Calm Calm - N/A Fog Fog
5:37 AM 42.8 °F 40.1 °F 41.0 °F 93% 30.48 in 0.2 mi North 4.6 mph - N/A Fog Fog
5:53 AM 42.1 °F 40.2 °F 41.0 °F 96% 30.49 in 0.2 mi North 3.5 mph - N/A Fog Fog
6:29 AM 41.0 °F 39.0 °F 39.2 °F 93% 30.48 in 0.5 mi NNE 3.5 mph - N/A Fog Fog
6:40 AM 41.0 °F 39.0 °F 39.2 °F 93% 30.47 in 2.0 mi NNE 3.5 mph - N/A   Overcast
6:48 AM 39.2 °F 37.0 °F 39.2 °F 100% 30.47 in 4.0 mi NNE 3.5 mph - N/A   Overcast
6:53 AM 41.0 °F - 39.0 °F 93% 30.48 in 5.0 mi Calm Calm - N/A   Overcast
7:02 AM 39.2 °F - 39.2 °F 100% 30.47 in 10.0 mi Calm Calm - N/A Fog Patches of Fog
7:13 AM 39.2 °F 37.0 °F 39.2 °F 100% 30.47 in 0.5 mi NNE 3.5 mph - N/A Fog Fog
7:53 AM 39.9 °F - 39.0 °F 97% 30.47 in 10.0 mi Calm Calm - N/A   Scattered Clouds
8:53 AM 42.1 °F 40.2 °F 39.0 °F 89% 30.48 in 10.0 mi NNE 3.5 mph - N/A   Clear
9:17 AM 42.8 °F 40.1 °F 39.2 °F 87% 30.46 in 10.0 mi NNE 4.6 mph - N/A   Scattered Clouds
9:53 AM 43.0 °F 40.3 °F 39.0 °F 86% 30.46 in 10.0 mi NNE 4.6 mph - N/A   Partly Cloudy
10:53 AM 46.0 °F 43.9 °F 39.0 °F 76% 30.44 in 10.0 mi Variable 4.6 mph - N/A   Clear
11:53 AM 46.9 °F - 39.9 °F 77% 30.42 in 10.0 mi North 4.6 mph - N/A   Clear
12:53 PM 48.9 °F - 39.9 °F 71% 30.38 in 10.0 mi NNW 5.8 mph - N/A   Clear
1:53 PM 50.0 °F - 39.9 °F 68% 30.35 in 10.0 mi Variable 3.5 mph - N/A   Clear
2:53 PM 50.0 °F - 39.9 °F 68% 30.32 in 10.0 mi North 4.6 mph - N/A   Clear
3:53 PM 50.0 °F - 39.9 °F 68% 30.30 in 10.0 mi North 5.8 mph - N/A   Clear
4:53 PM 48.0 °F - 41.0 °F 77% 30.28 in 10.0 mi North 5.8 mph - N/A   Clear
5:53 PM 45.0 °F 43.5 °F 41.0 °F 86% 30.25 in 10.0 mi North 3.5 mph - N/A   Clear
6:53 PM 43.0 °F 40.3 °F 39.9 °F 89% 30.25 in 10.0 mi NNW 4.6 mph - N/A   Clear
7:53 PM 42.1 °F 40.2 °F 39.0 °F 89% 30.24 in 10.0 mi North 3.5 mph - N/A   Clear
8:53 PM 42.1 °F - 39.0 °F 89% 30.24 in 10.0 mi Calm Calm - N/A   Clear
9:53 PM 42.1 °F - 39.0 °F 89% 30.22 in 10.0 mi Calm Calm - 0.01 in   Clear
10:53 PM 41.0 °F - 37.9 °F 89% 30.22 in 10.0 mi Calm Calm - N/A   Clear
11:53 PM 39.9 °F - 37.9 °F 93% 30.18 in 9.0 mi Calm Calm - N/A   Clear